EST,Max TemperatureF,Mean TemperatureF,Min TemperatureF,Max Dew PointF,MeanDew PointF,Min DewpointF,Max Humidity, Mean Humidity, Min Humidity, Max Sea Level PressureIn, Mean Sea Level PressureIn, Min Sea Level PressureIn, Max VisibilityMiles, Mean VisibilityMiles, Min VisibilityMiles, Max Wind SpeedMPH, Mean Wind SpeedMPH, Max Gust SpeedMPH,PrecipitationIn, CloudCover, Events, WindDirDegrees
2014-1-1,19,16,14,14,12,9,88,79,71,30.31,30.23,30.13,10,3,1,14,7,20,0.05,8,Snow,65
2014-1-2,15,8,-2,10,6,-8,84,75,59,30.37,30.14,30.04,10,4,0,22,14,29,0.01,7,Snow,22
2014-1-3,16,4,-9,6,-5,-15,87,68,49,30.51,30.38,30.12,10,9,2,22,6,33,0.00,1,,179
2014-1-4,32,24,16,24,16,6,76,65,60,30.07,29.99,29.93,10,10,9,23,16,30,0.00,2,,201
2014-1-5,30,26,19,28,24,15,93,87,80,30.02,29.87,29.71,9,1,0,24,6,33,0.29,8,Fog-Snow,18
2014-1-6,19,2,-14,16,-14,-24,86,69,59,30.29,30.09,29.78,3,2,1,26,21,36,0.00,3,Snow,256
2014-1-7,3,-5,-11,-3,-13,-20,76,68,62,30.39,30.34,30.27,10,8,3,17,14,24,0.00,0,,222
2014-1-8,16,4,-8,5,-2,-13,91,77,62,30.55,30.43,30.35,10,8,4,5,2,,0.00,1,,210
2014-1-9,27,8,-9,24,8,-15,89,81,71,30.58,30.40,30.23,9,3,0,12,4,,0.01,5,Fog-Snow,128
2014-1-10,43,36,28,41,33,25,100,91,86,30.23,30.02,29.62,10,3,0,20,8,23,0.42,8,Fog-Rain,162
2014-1-11,43,38,33,41,35,28,100,90,81,29.74,29.51,29.40,9,3,0,18,14,25,0.05,8,Fog-Rain-Snow,237
2014-1-12,42,36,30,30,28,26,86,77,62,29.98,29.84,29.73,10,8,3,21,13,31,0.00,5,,212
2014-1-13,46,40,35,38,33,30,86,72,60,29.75,29.66,29.57,10,10,5,18,14,26,0.00,2,,224
2014-1-14,37,31,25,32,25,16,92,76,55,29.84,29.75,29.67,10,6,0,26,13,36,0.00,6,Snow,227
2014-1-15,26,22,19,19,16,10,86,76,63,30.06,29.96,29.80,10,8,2,22,15,29,0.00,8,Snow,251
2014-1-16,30,24,19,27,21,10,86,81,66,29.96,29.67,29.57,10,4,0,21,16,28,0.01,8,Fog-Snow,191
2014-1-17,25,18,12,17,12,6,86,75,65,30.00,29.86,29.68,10,6,2,15,10,,0.00,8,Snow,247
2014-1-18,19,14,9,16,13,8,96,83,68,29.97,29.87,29.78,10,4,0,14,10,,0.05,6,Fog-Snow,143
2014-1-19,36,22,10,26,16,9,93,80,67,29.84,29.75,29.55,10,5,1,29,12,37,0.00,3,,238
2014-1-20,37,29,18,29,23,13,86,76,65,30.00,29.83,29.54,10,8,2,18,11,28,0.00,8,Snow,326
2014-1-21,17,10,3,10,1,-7,79,65,45,30.25,30.13,29.97,10,6,1,21,15,29,0.00,5,Snow,44
2014-1-22,14,8,3,9,3,-6,85,74,55,30.22,30.01,29.90,10,4,1,18,10,29,0.00,8,Snow,212
2014-1-23,10,5,0,4,-1,-6,80,75,70,30.56,30.33,30.00,10,6,1,21,15,24,0.00,6,Snow,255
2014-1-24,21,6,-6,17,3,-13,86,71,57,30.56,30.03,29.61,10,4,0,30,19,45,0.00,5,Fog-Snow,217
2014-1-25,30,19,8,27,14,-3,93,75,50,29.85,29.54,29.35,10,3,0,28,21,38,0.03,7,Fog-Snow,275
2014-1-26,30,18,5,25,11,-3,93,78,64,29.84,29.56,29.37,10,4,0,29,13,45,0.07,7,Fog-Snow,212
2014-1-27,19,6,-8,9,-2,-16,85,73,58,30.42,30.05,29.60,10,4,0,36,23,48,0.02,5,Fog-Snow,263
2014-1-28,3,-5,-13,-10,-14,-19,75,66,52,30.48,30.40,30.30,10,10,10,13,9,,0.00,0,,229
2014-1-29,18,7,-4,4,-3,-10,76,61,47,30.27,30.23,30.15,10,10,10,18,11,26,0.00,0,,220
2014-1-30,32,23,16,25,13,3,93,65,52,30.14,29.92,29.78,10,8,0,24,17,38,0.00,4,Snow,199
2014-1-31,33,30,26,27,23,18,93,82,54,30.14,30.08,29.86,10,4,1,15,7,,0.05,8,Snow,287